Location: *
(50.9167°S, 179.4000°W)
Time: 20:40:14
(UTC+00:00)

Cosmos 864 Rocket - Pass Details

Date: 03 March 2024
Orbit: 952 x 991 km, 82.9° (Epoch: 16 April)

Event Time Altitude Azimuth Distance (km) Brightness Sun altitude
Exits shadow 13:54:08 77° 290° (WNW) 1,008 4.3 -28.3°
Maximum altitude 13:54:24 79° 260° (W) 1,003 4.4 -28.3°
Drops below altitude 10° 14:00:45 10° 172° (S) 2,760 7.7 -27.8°
Sets 14:03:18 0° 170° (S) 3,720 8.6 -27.6°
